C/2017 T2 ( PanSTARRS )

Japanese version
Home page
Updated on April 13, 2018

---------------------------------------------------------------------

* Profile

Discovery Date October 2, 2017
Magnitude 19.9 mag
Discoverer Pan-STARRS 1 telescope (Haleakala)

* Pictures

* Orbital Elements

Epoch 2020 Apr. 21.0 TT = JDT 2458960.5
T 2020 May 4.96379 TT                                   MPCW
q   1.6151273            (2000.0)            P               Q
z  +0.0002357      Peri.   92.99443     -0.50996233     -0.40634296
 +/-0.0000142      Node    64.37825     -0.16278123     -0.81988060
e   0.9996194      Incl.   57.23039     +0.84465419     -0.40333758
From 154 observations 2017 Sept. 15-2018 Mar. 5, mean residual 0".3.

* Finding Charts

* Magnitudes Graph

        m1 = 4.5 + 5 log d + 10.0 log r

---------------------------------------------------------------------

The orbital elements are published on M.P.E.C. 2018-F152.
The charts are made with StellaNavigator Ver.10 (AstroArts).
The magnitudes graphs are made with Comet for Windows.

---------------------------------------------------------------------

Copyright(C) Seiichi Yoshida (comet@aerith.net). All rights reserved.